TimeEDT,TemperatureF,Dew PointF,Humidity,Sea Level PressureIn,VisibilityMPH,Wind Direction,Wind SpeedMPH,Gust SpeedMPH,PrecipitationIn,Events,Conditions,WindDirDegrees,DateUTC
12:53 AM,54.0,46.9,77,29.94,10.0,Calm,Calm,-,N/A,,Clear,0,2013-06-16 04:53:00
1:53 AM,57.0,46.9,69,29.94,10.0,South,5.8,-,N/A,,Clear,180,2013-06-16 05:53:00
2:53 AM,55.9,46.9,72,29.94,10.0,South,4.6,-,N/A,,Clear,180,2013-06-16 06:53:00
3:53 AM,54.0,46.0,75,29.94,10.0,Calm,Calm,-,N/A,,Clear,0,2013-06-16 07:53:00
4:53 AM,51.1,46.0,83,29.94,10.0,Calm,Calm,-,N/A,,Mostly Cloudy,0,2013-06-16 08:53:00
5:53 AM,52.0,48.0,86,29.92,10.0,Calm,Calm,-,N/A,,Clear,0,2013-06-16 09:53:00
6:53 AM,55.9,48.9,77,29.93,10.0,Calm,Calm,-,N/A,,Clear,0,2013-06-16 10:53:00
7:53 AM,59.0,48.9,69,29.92,10.0,SSW,6.9,-,N/A,,Mostly Cloudy,210,2013-06-16 11:53:00
8:53 AM,61.0,51.1,70,29.91,10.0,South,5.8,-,N/A,,Overcast,180,2013-06-16 12:53:00
9:53 AM,64.0,53.1,67,29.87,10.0,South,8.1,-,N/A,,Overcast,170,2013-06-16 13:53:00
10:53 AM,69.1,54.0,58,29.84,10.0,SSE,10.4,-,N/A,,Partly Cloudy,160,2013-06-16 14:53:00
11:53 AM,70.0,55.9,61,29.80,10.0,SSE,11.5,-,N/A,,Clear,160,2013-06-16 15:53:00
12:53 PM,69.1,55.9,63,29.78,10.0,South,8.1,17.3,0.00,Rain,Light Rain,190,2013-06-16 16:53:00
1:53 PM,69.1,55.9,63,29.73,10.0,South,9.2,-,0.00,,Mostly Cloudy,190,2013-06-16 17:53:00
2:53 PM,64.9,57.0,75,29.74,2.0,SSW,13.8,21.9,0.03,Rain,Rain,210,2013-06-16 18:53:00
3:09 PM,64.4,57.2,77,29.73,6.0,SSW,9.2,-,0.03,Rain,Light Rain,200,2013-06-16 19:09:00
3:53 PM,64.0,60.1,87,29.72,5.0,Calm,Calm,-,0.03,Rain,Light Rain,0,2013-06-16 19:53:00
4:53 PM,64.0,61.0,90,29.72,6.0,SSW,5.8,-,0.01,,Overcast,200,2013-06-16 20:53:00
5:53 PM,64.9,61.0,87,29.71,7.0,SSW,4.6,-,N/A,,Overcast,210,2013-06-16 21:53:00
6:02 PM,66.2,60.8,83,29.70,8.0,Variable,4.6,-,N/A,,Mostly Cloudy,0,2013-06-16 22:02:00
6:14 PM,64.4,60.8,88,29.70,9.0,WSW,4.6,-,N/A,,Scattered Clouds,240,2013-06-16 22:14:00
6:53 PM,66.0,62.1,87,29.72,10.0,Variable,3.5,-,N/A,,Mostly Cloudy,0,2013-06-16 22:53:00
7:53 PM,66.0,61.0,84,29.74,10.0,SSW,4.6,-,N/A,,Scattered Clouds,210,2013-06-16 23:53:00
8:53 PM,63.0,60.1,90,29.77,10.0,South,3.5,-,N/A,,Clear,190,2013-06-17 00:53:00
9:53 PM,57.9,57.0,97,29.80,2.5,South,3.5,-,N/A,,Partly Cloudy,180,2013-06-17 01:53:00
10:02 PM,57.2,57.2,100,29.79,1.5,South,4.6,-,N/A,,Clear,180,2013-06-17 02:02:00
10:08 PM,59.0,57.2,94,29.80,3.0,SSW,3.5,-,N/A,,Clear,200,2013-06-17 02:08:00
10:53 PM,61.0,59.0,93,29.81,7.0,Calm,Calm,-,N/A,,Clear,0,2013-06-17 02:53:00
11:53 PM,57.0,55.9,96,29.82,5.0,SW,3.5,-,N/A,,Clear,220,2013-06-17 03:53:00